Weather History for Omak, WA

Change the Weather History Date:

Tuesday, June 25, 2013

  Actual Average Record
Temperature  
Mean Temperature 65 °F 68 °F  
Max Temperature 72 °F 82 °F 100 °F (1992)
Min Temperature 58 °F 53 °F 36 °F (1976)
Degree Days  
Heating Degree Days 0 2  
Month to date heating degree days 65 65  
Since 1 June heating degree days 65 65  
Since 1 July heating degree days 6082 6338  
Cooling Degree Days 0 4  
Month to date cooling degree days 31 62  
Year to date cooling degree days 54 85  
Since 1 June cooling degree days 31 62  
Growing Degree Days 14 (Base 50)    
Moisture  
Dew Point 52 °F    
Average Humidity 64    
Maximum Humidity 86    
Minimum Humidity 41    
Precipitation  
Precipitation T in 0.04 in 0.47 in (1941)
Month to date precipitation 1.62 1.07  
Year to date precipitation 5.71 7.59  
Sea Level Pressure  
Sea Level Pressure 29.75 in    
Wind  
Wind Speed 8 mph (South)    
Max Wind Speed 18 mph    
Max Gust Speed 24 mph    
Visibility 10 miles    
Events      
T = Trace of Precipitation, MM = Missing Value Source: NWS Daily Summary

Daily Weather History Graph

Daily Weather History Graph

Search for Another Location

Airport:

Trip Planner

Search our weather history database for the weather conditions in past years. The results will help you decide how hot, cold, wet, or windy it might be!

Date:

Astronomy

Jun. 25, 2013 Rise Set
Actual Time 4:57 AM PDT 9:03 PM PDT
Civil Twilight 4:15 AM PDT 9:45 PM PDT
Nautical Twilight 3:16 AM PDT 10:44 PM PDT
Astronomical Twilight 1:22 AM PDT 12:37 AM PDT
Moon 10:34 PM PDT 7:58 AM PDT
Length of Visible Light 17h 30m
Length of Day
16h 06m
Waning Gibbous, 92% of the Moon is Illuminated
Jun 25
Waning Gibbous
Jun 29
Last Quarter
Jul 8
New
Jul 15
First Quarter
Jul 22
Full

Hourly Weather History & Observations

Time (PDT) Temp. Dew Point Humidity Pressure Visibility Wind Dir Wind Speed Gust Speed Precip Events Conditions
12:53 AM 57.0 °F 54.0 °F 89% 29.69 in 10.0 mi South 3.5 mph - N/A   Overcast
1:31 AM 57.2 °F 53.6 °F 88% 29.70 in 10.0 mi South 5.8 mph - N/A   Overcast
1:53 AM 57.9 °F 53.1 °F 84% 29.70 in 10.0 mi South 6.9 mph - N/A   Overcast
2:30 AM 57.2 °F 53.6 °F 88% 29.71 in 10.0 mi South 4.6 mph - N/A   Overcast
2:53 AM 59.0 °F 53.1 °F 81% 29.71 in 10.0 mi South 9.2 mph - N/A   Overcast
3:53 AM 57.9 °F 54.0 °F 87% 29.72 in 10.0 mi SSW 5.8 mph - N/A   Overcast
4:53 AM 57.9 °F 52.0 °F 81% 29.73 in 10.0 mi South 8.1 mph - N/A   Overcast
5:15 AM 57.2 °F 53.6 °F 88% 29.74 in 10.0 mi SSW 5.8 mph - N/A   Overcast
5:53 AM 57.9 °F 53.1 °F 84% 29.75 in 10.0 mi SSW 4.6 mph - N/A   Overcast
6:53 AM 57.9 °F 52.0 °F 81% 29.75 in 10.0 mi SW 10.4 mph - N/A   Overcast
7:53 AM 59.0 °F 52.0 °F 78% 29.76 in 10.0 mi SSW 4.6 mph - 0.00 in   Scattered Clouds
8:53 AM 61.0 °F 52.0 °F 72% 29.77 in 10.0 mi South 9.2 mph - N/A   Overcast
9:53 AM 61.0 °F 52.0 °F 72% 29.77 in 10.0 mi SSW 6.9 mph - N/A   Overcast
10:53 AM 62.1 °F 51.1 °F 67% 29.78 in 10.0 mi South 8.1 mph - N/A   Mostly Cloudy
11:53 AM 64.9 °F 52.0 °F 63% 29.77 in 10.0 mi SSW 4.6 mph - N/A   Scattered Clouds
12:53 PM 66.9 °F 52.0 °F 59% 29.76 in 10.0 mi SSW 10.4 mph - N/A   Mostly Cloudy
1:53 PM 66.9 °F 51.1 °F 57% 29.76 in 10.0 mi SSW 11.5 mph - 0.00 in   Overcast
2:53 PM 69.1 °F 50.0 °F 51% 29.76 in - North - - N/A   Unknown
3:53 PM 69.1 °F 46.9 °F 45% 29.75 in 10.0 mi North - - N/A   Unknown
4:53 PM 71.1 °F 46.9 °F 42% 29.74 in 10.0 mi SSW 13.8 mph 18.4 mph N/A   Overcast
5:53 PM 69.1 °F 46.0 °F 44% 29.75 in 10.0 mi SSW 12.7 mph 20.7 mph N/A   Overcast
6:53 PM 64.9 °F 51.1 °F 61% 29.77 in 10.0 mi ESE 5.8 mph - N/A   Overcast
7:53 PM 64.0 °F 51.1 °F 63% 29.78 in 10.0 mi Calm Calm - N/A   Partly Cloudy
8:53 PM 63.0 °F 52.0 °F 67% 29.78 in 10.0 mi SE 6.9 mph - N/A   Overcast
9:53 PM 62.1 °F 51.1 °F 67% 29.81 in 10.0 mi SE 6.9 mph - N/A   Mostly Cloudy
10:53 PM 62.1 °F 52.0 °F 70% 29.81 in 10.0 mi SSE 9.2 mph - N/A   Partly Cloudy
11:53 PM 61.0 °F 52.0 °F 72% 29.82 in 10.0 mi South 4.6 mph - N/A   Overcast